Medicine Lodge, KS

4:49 AM CST on December 13, 2019 (GMT -0600)
Medicine Lodge

Weather History for KP28 - November, 2019

Change the Weather History Date:

Tuesday, November 19, 2019

  Actual Average Record
Temperature  
Mean Temperature 52 °F 44 °F  
Max Temperature 70 °F 56 °F 84 °F (2007)
Min Temperature 33 °F 31 °F 11 °F (1921)
Degree Days  
Heating Degree Days 13 21  
Month to date heating degree days 419 323  
Since 1 July heating degree days 810 592  
Cooling Degree Days 0 0  
Month to date cooling degree days 0 0  
Year to date cooling degree days 1837 1769  
Growing Degree Days 2 (Base 50)    
Moisture  
Dew Point 34 °F    
Average Humidity 56    
Maximum Humidity 82    
Minimum Humidity 30    
Precipitation  
Precipitation 0.00 in 0.03 in 1.16 in (1992)
Month to date precipitation 0.00 0.69  
Year to date precipitation 30.37 25.98  
Snow  
Snow 0.00 in 0.00 in - ()
Month to date snowfall 0.0 0.0  
Since 1 July snowfall T 0.0  
Since 1 September snowfall T 0.0  
Snow Depth 0.00 in    
Sea Level Pressure  
Sea Level Pressure 29.88 in    
Wind  
Wind Speed 8 mph (ESE)    
Max Wind Speed 17 mph    
Max Gust Speed 31 mph    
T = Trace of Precipitation, MM = Missing Value Source: NWS Daily Summary

Daily Weather History Graph

Daily Weather History Graph

Search for Another Location

Airport or City:

Astronomy

Nov. 19, 2019 Rise Set
Actual Time 7:17 AM CST 5:21 PM CST
Civil Twilight 6:49 AM CST 5:49 PM CST
Nautical Twilight 6:17 AM CST 6:21 PM CST
Astronomical Twilight 5:46 AM CST 6:52 PM CST
Moon No Moon Rise 1:29 PM CST (11/19)
Length of Visible Light 11h 00m
Length of Day
10h 04m
Waning Gibbous, 51% of the Moon is Illuminated
Nov 19
Waning Gibbous
Nov 19
Last Quarter
Nov 26
New
Dec 4
First Quarter
Dec 11
Full

Hourly Weather History & Observations

Time (CST) Temp. Windchill Dew Point Humidity Pressure Visibility Wind Dir Wind Speed Gust Speed Precip Events Conditions
1:56 AM 42.1 °F 37.7 °F 30.9 °F 65% 29.91 in - North 6.9 mph - N/A   Unknown
2:56 AM 39.9 °F 36.7 °F 30.0 °F 68% 29.91 in - NW 4.6 mph - N/A   Unknown
3:56 AM 37.0 °F 33.3 °F 28.9 °F 73% 29.91 in - North 4.6 mph - N/A   Unknown
4:56 AM 37.9 °F 35.5 °F 28.9 °F 70% 29.92 in - NNW 3.5 mph - N/A   Unknown
5:56 AM 37.0 °F 32.4 °F 28.9 °F 73% 29.95 in - West 5.8 mph - N/A   Unknown
6:56 AM 34.0 °F 28.8 °F 28.0 °F 79% 29.96 in - North 5.8 mph - N/A   Unknown
7:56 AM 37.0 °F - 28.9 °F 73% 29.98 in - Calm Calm - N/A   Unknown
8:56 AM 43.0 °F - 30.0 °F 60% 29.99 in - Calm Calm - N/A   Unknown
9:56 AM 54.0 °F - 30.9 °F 41% 29.95 in - ESE 9.2 mph - N/A   Unknown
10:56 AM 60.1 °F - 33.1 °F 36% 29.93 in - SE 11.5 mph 18.4 mph N/A   Unknown
12:56 PM 64.9 °F - 34.0 °F 32% 29.86 in - ESE 10.4 mph 24.2 mph N/A   Unknown
1:56 PM 68.0 °F - 36.0 °F 31% 29.83 in - SSE 11.5 mph 24.2 mph N/A   Unknown
2:56 PM 69.1 °F - 37.0 °F 31% 29.80 in - SSE 17.3 mph 25.3 mph N/A   Unknown
3:56 PM 70.0 °F - 37.9 °F 31% 29.80 in - SSE 11.5 mph 24.2 mph N/A   Unknown
4:56 PM 66.0 °F - 39.0 °F 37% 29.80 in - SE 10.4 mph 19.6 mph N/A   Unknown
5:56 PM 63.0 °F - 39.0 °F 41% 29.79 in - ESE 11.5 mph 24.2 mph N/A   Unknown
6:56 PM 60.1 °F - 39.0 °F 46% 29.81 in - SE 12.7 mph 21.9 mph N/A   Unknown
7:56 PM 57.9 °F - 39.0 °F 49% 29.81 in - SE 9.2 mph - N/A   Unknown
9:56 PM 53.1 °F - 37.9 °F 57% 29.80 in - ESE 9.2 mph - N/A   Unknown